Location: Lane
(33.5226°N, 79.8788°W)
Time: 23:26:46
(UTC+00:00)

Tiros 1 - Pass Details

Date: 09 October 2022
Orbit: 629 x 662 km, 48.4° (Epoch: 09 December)

Event Time Altitude Azimuth Distance (km) Brightness Sun altitude
Rises 00:22:57 0° 199° (SSW) 2,961 10.7 -19.2°
Reaches altitude 10° 00:25:36 10° 186° (S) 2,057 9.7 -19.8°
Enters shadow 00:28:01 21° 159° (SSE) 1,450 8.7 -20.3°
